Dades meteomassalio
Diari Summary for Gener 26, 2017 Units:  English    Metric   Both
« Previous Day
Next Day »
Diari Semanal Mensual Anual Personalitzat
  Maxima: Minima: Mijana:
Temperatura: 49.8 °F 24.6 °F 37.2 °F
Rosada: 39.6 °F 22.6 °F 31.3 °F
Humitat: 92 % 63 % 80 %
Velocitat del vent: 6 mph 0 mph 0.6 mph
Racha vent: 6 mph - -
Vent:- - ESE
Pressio: 30.2 in 30 in -
Pluja: 0 in    
Historical Graphs
 
 
Tabular Data for Gener 26, 2017
Time Temperature Dew Point Pressure Wind Wind Speed Wind Gust Humidity Rainfall Rate (Hourly) solar Conditions
00:02 29.1 °F 26.2 °F 30.2 in Calm     89 % 0 in 0.0 W/m2 CLR
00:07 29.1 °F 26.2 °F 30.2 in Calm     89 % 0 in 0.0 W/m2 CLR
00:12 28.9 °F 26.1 °F 30.2 in Calm     89 % 0 in 0.0 W/m2 CLR
00:17 28.9 °F 26.1 °F 30.2 in Calm     89 % 0 in 0.0 W/m2 CLR
00:22 28.8 °F 26.1 °F 30.2 in Calm     89 % 0 in 0.0 W/m2 CLR
00:27 28.8 °F 25.9 °F 30.2 in Calm     89 % 0 in 0.0 W/m2 CLR
00:32 28.8 °F 26.1 °F 30.2 in Calm     89 % 0 in 0.0 W/m2 CLR
00:37 28.9 °F 26.1 °F 30.2 in Calm     89 % 0 in 0.0 W/m2 CLR
00:42 28.9 °F 26.1 °F 30.2 in Calm     89 % 0 in 0.0 W/m2 CLR
00:47 28.8 °F 26.1 °F 30.2 in Calm     89 % 0 in 0.0 W/m2 CLR
00:48 28.8 °F 26.1 °F 30.2 in Calm     89 % 0 in 0.0 W/m2 CLR
00:53 28.8 °F 25.9 °F 30.2 in Calm     89 % 0 in 0.0 W/m2 CLR
00:58 28.4 °F 25.5 °F 30.2 in Calm     89 % 0 in 0.0 W/m2 CLR
01:03 28.2 °F 25.5 °F 30.2 in Calm     89 % 0 in 0.0 W/m2 CLR
01:08 28.2 °F 25.3 °F 30.2 in Calm     89 % 0 in 0.0 W/m2 CLR
01:13 28 °F 25.3 °F 30.2 in Calm     89 % 0 in 0.0 W/m2 CLR
01:18 28 °F 25.3 °F 30.2 in Calm     90 % 0 in 0.0 W/m2 CLR
01:23 28 °F 25.3 °F 30.2 in Calm     90 % 0 in 0.0 W/m2 CLR
01:28 28 °F 25.3 °F 30.2 in Calm     90 % 0 in 0.0 W/m2 CLR
01:33 28 °F 25.3 °F 30.2 in Calm     90 % 0 in 0.0 W/m2 CLR
01:38 28 °F 25.3 °F 30.2 in Calm     90 % 0 in 0.0 W/m2 CLR
01:43 28 °F 25.3 °F 30.2 in Calm     90 % 0 in 0.0 W/m2 CLR
01:48 28 °F 25.3 °F 30.2 in Calm     90 % 0 in 0.0 W/m2 CLR
01:53 27.9 °F 25.3 °F 30.2 in Calm     90 % 0 in 0.0 W/m2 CLR
01:58 27.9 °F 25.2 °F 30.2 in Calm     90 % 0 in 0.0 W/m2 CLR
02:03 27.7 °F 25.2 °F 30.2 in Calm     90 % 0 in 0.0 W/m2 CLR
02:08 27.7 °F 25.2 °F 30.2 in Calm     90 % 0 in 0.0 W/m2 CLR
02:13 27.7 °F 25.2 °F 30.2 in Calm     90 % 0 in 0.0 W/m2 CLR
02:18 27.7 °F 25.3 °F 30.2 in Calm     91 % 0 in 0.0 W/m2 CLR
02:23 27.7 °F 25.3 °F 30.2 in Calm     91 % 0 in 0.0 W/m2 CLR
02:28 27.7 °F 25.2 °F 30.2 in Calm     90 % 0 in 0.0 W/m2 CLR
02:33 27.7 °F 25.2 °F 30.2 in Calm     90 % 0 in 0.0 W/m2 CLR
02:38 27.5 °F 25 °F 30.1 in Calm     90 % 0 in 0.0 W/m2 CLR
02:43 27.3 °F 25 °F 30.2 in Calm     90 % 0 in 0.0 W/m2 CLR
02:48 27.3 °F 25.2 °F 30.2 in Calm     91 % 0 in 0.0 W/m2 CLR
02:53 27.3 °F 25 °F 30.2 in Calm     90 % 0 in 0.0 W/m2 CLR
02:58 27.5 °F 25 °F 30.2 in Calm     90 % 0 in 0.0 W/m2 CLR
03:03 27.5 °F 25 °F 30.2 in Calm     90 % 0 in 0.0 W/m2 CLR
03:08 27.5 °F 25 °F 30.2 in Calm     90 % 0 in 0.0 W/m2 CLR
03:13 27.5 °F 25 °F 30.2 in Calm     90 % 0 in 0.0 W/m2 CLR
03:18 27.3 °F 25 °F 30.2 in Calm     90 % 0 in 0.0 W/m2 CLR
03:23 27.3 °F 24.8 °F 30.1 in Calm     90 % 0 in 0.0 W/m2 CLR
03:28 27.1 °F 24.6 °F 30.1 in Calm     90 % 0 in 0.0 W/m2 CLR
03:33 27.1 °F 24.6 °F 30.1 in Calm     90 % 0 in 0.0 W/m2 CLR
03:38 27.1 °F 24.8 °F 30.1 in Calm     91 % 0 in 0.0 W/m2 CLR
03:43 27.1 °F 24.8 °F 30.2 in Calm     91 % 0 in 0.0 W/m2 CLR
03:48 27.1 °F 25 °F 30.1 in Calm     91 % 0 in 0.0 W/m2 CLR
03:53 27.1 °F 25 °F 30.1 in Calm     91 % 0 in 0.0 W/m2 CLR
03:59 27.1 °F 25 °F 30.1 in Calm     91 % 0 in 0.0 W/m2 CLR
04:04 27.1 °F 24.8 °F 30.1 in Calm     91 % 0 in 0.0 W/m2 CLR
04:09 27 °F 24.4 °F 30.1 in Calm     90 % 0 in 0.0 W/m2 CLR
04:14 27.1 °F 24.8 °F 30.1 in Calm     91 % 0 in 0.0 W/m2 CLR
04:19 27.1 °F 24.8 °F 30.1 in Calm     91 % 0 in 0.0 W/m2 CLR
04:24 27.1 °F 24.8 °F 30.1 in Calm     91 % 0 in 0.0 W/m2 CLR
04:29 27.1 °F 24.8 °F 30.1 in Calm     91 % 0 in 0.0 W/m2 CLR
04:34 27 °F 24.6 °F 30.1 in Calm     91 % 0 in 0.0 W/m2 CLR
04:39 27 °F 24.6 °F 30.1 in Calm     91 % 0 in 0.0 W/m2 CLR
04:44 27 °F 24.6 °F 30.1 in Calm     91 % 0 in 0.0 W/m2 CLR
04:49 27 °F 24.6 °F 30.1 in Calm     91 % 0 in 0.0 W/m2 CLR
04:54 27 °F 24.6 °F 30.1 in Calm     91 % 0 in 0.0 W/m2 CLR
04:59 27 °F 24.6 °F 30.1 in Calm     91 % 0 in 0.0 W/m2 CLR
05:04 27 °F 24.6 °F 30.1 in Calm     91 % 0 in 0.0 W/m2 CLR
05:09 27 °F 24.6 °F 30.1 in Calm     91 % 0 in 0.0 W/m2 CLR
05:14 27 °F 24.6 °F 30.1 in Calm     91 % 0 in 0.0 W/m2 CLR
05:19 27 °F 24.6 °F 30.1 in Calm     91 % 0 in 0.0 W/m2 CLR
05:24 26.8 °F 24.4 °F 30.1 in Calm     91 % 0 in 0.0 W/m2 CLR
05:29 26.8 °F 24.4 °F 30.1 in Calm     91 % 0 in 0.0 W/m2 CLR
05:34 26.6 °F 24.3 °F 30.1 in Calm     91 % 0 in 0.0 W/m2 CLR
05:39 26.6 °F 24.3 °F 30.1 in Calm     91 % 0 in 0.0 W/m2 CLR
05:44 26.4 °F 24.3 °F 30.1 in Calm     91 % 0 in 0.0 W/m2 CLR
05:49 26.2 °F 24.1 °F 30.1 in Calm     91 % 0 in 0.0 W/m2 CLR
05:54 26.4 °F 24.1 °F 30.1 in Calm     91 % 0 in 0.0 W/m2 CLR
05:59 26.4 °F 24.1 °F 30.1 in Calm     91 % 0 in 0.0 W/m2 CLR
06:04 26.2 °F 24.1 °F 30.1 in Calm     91 % 0 in 0.0 W/m2 CLR
06:09 26.4 °F 24.1 °F 30.1 in Calm     91 % 0 in 0.0 W/m2 CLR
06:14 26.4 °F 24.1 °F 30.1 in Calm     91 % 0 in 0.0 W/m2 CLR
06:19 26.4 °F 24.1 °F 30.1 in Calm     91 % 0 in 0.0 W/m2 CLR
06:24 26.2 °F 23.9 °F 30.1 in Calm     91 % 0 in 0.0 W/m2 CLR
06:29 26.1 °F 23.7 °F 30.1 in Calm     91 % 0 in 0.0 W/m2 CLR
06:34 25.9 °F 23.5 °F 30.1 in Calm     91 % 0 in 0.0 W/m2 CLR
06:39 25.9 °F 23.5 °F 30.1 in Calm     91 % 0 in 0.0 W/m2 CLR
06:44 25.9 °F 23.9 °F 30.1 in Calm     92 % 0 in 0.0 W/m2 CLR
06:49 25.9 °F 23.9 °F 30.1 in Calm     92 % 0 in 0.0 W/m2 CLR
06:54 25.9 °F 23.9 °F 30.1 in Calm     92 % 0 in 0.0 W/m2 CLR
06:59 25.9 °F 23.7 °F 30.1 in Calm     92 % 0 in 0.0 W/m2 CLR
07:04 25.7 °F 23.7 °F 30.1 in Calm     92 % 0 in 0.0 W/m2 CLR
07:09 25.5 °F 23.5 °F 30.1 in Calm     92 % 0 in 0.0 W/m2 CLR
07:14 25.5 °F 23.5 °F 30.1 in Calm     92 % 0 in 0.0 W/m2 CLR
07:19 25.5 °F 23.5 °F 30.1 in Calm     92 % 0 in 0.0 W/m2 CLR
07:25 25.3 °F 23.4 °F 30.1 in Calm     92 % 0 in 0.0 W/m2 CLR
07:30 25.2 °F 23.2 °F 30.1 in Calm     92 % 0 in 0.0 W/m2 CLR
07:35 25.2 °F 23.2 °F 30.1 in Calm     92 % 0 in 0.0 W/m2 CLR
07:40 25 °F 23 °F 30.1 in Calm     92 % 0 in 0.0 W/m2 CLR
07:45 25 °F 22.8 °F 30.1 in Calm     92 % 0 in 0.0 W/m2 CLR
07:50 25 °F 23 °F 30.1 in Calm     92 % 0 in 0.0 W/m2 CLR
07:55 25 °F 23 °F 30.2 in Calm     92 % 0 in 0.0 W/m2 CLR
08:00 25 °F 22.8 °F 30.2 in Calm     92 % 0 in 0.0 W/m2 CLR
08:05 25 °F 22.8 °F 30.2 in Calm     92 % 0 in 0.0 W/m2 CLR
08:10 24.8 °F 22.8 °F 30.2 in Calm     92 % 0 in 0.0 W/m2 OVC
08:15 24.8 °F 22.8 °F 30.2 in Calm     92 % 0 in 0.0 W/m2 OVC
08:20 24.6 °F 22.6 °F 30.2 in Calm     92 % 0 in 5.0 W/m2 OVC
08:25 24.8 °F 22.8 °F 30.2 in Calm     92 % 0 in 9.0 W/m2 BKN
08:30 25 °F 22.8 °F 30.2 in Calm     92 % 0 in 9.0 W/m2 BKN
08:35 25.2 °F 23.2 °F 30.2 in Calm     92 % 0 in 16.0 W/m2 BKN
08:40 25.2 °F 23.2 °F 30.2 in Calm     92 % 0 in 19.0 W/m2 BKN
08:45 25.3 °F 23.4 °F 30.2 in Calm     92 % 0 in 21.0 W/m2 BKN
08:50 25.5 °F 23.5 °F 30.2 in Calm     92 % 0 in 26.0 W/m2 BKN
08:55 25.9 °F 23.9 °F 30.2 in Calm     92 % 0 in 32.0 W/m2 BKN
09:00 26.2 °F 24.3 °F 30.2 in Calm     92 % 0 in 37.0 W/m2 BKN
09:05 26.4 °F 24.4 °F 30.2 in Calm     92 % 0 in 51.0 W/m2 SCT
09:10 26.8 °F 24.8 °F 30.2 in Calm     92 % 0 in 69.0 W/m2 FEW
09:15 27.1 °F 25.2 °F 30.2 in Calm     92 % 0 in 81.0 W/m2 FEW
09:20 27.3 °F 25.3 °F 30.2 in Calm     92 % 0 in 97.0 W/m2 FEW
09:25 27.7 °F 25.3 °F 30.2 in Calm     91 % 0 in 105.0 W/m2 CLR
09:30 28.2 °F 26.2 °F 30.2 in Calm     92 % 0 in 120.0 W/m2 CLR
09:35 28.8 °F 26.4 °F 30.2 in Calm     91 % 0 in 158.0 W/m2 CLR
09:41 29.1 °F 26.4 °F 30.2 in Calm     90 % 0 in 151.0 W/m2 CLR
09:46 29.5 °F 27 °F 30.2 in Calm     90 % 0 in 148.0 W/m2 CLR
09:51 30 °F 27.3 °F 30.2 in Calm     90 % 0 in 114.0 W/m2 CLR
09:56 30.7 °F 28 °F 30.2 in Calm     90 % 0 in 137.0 W/m2 CLR
10:01 31.1 °F 28.2 °F 30.2 in Calm     89 % 0 in 232.0 W/m2 CLR
10:06 31.5 °F 28.6 °F 30.2 in Calm     89 % 0 in 246.0 W/m2 CLR
10:11 32 °F 28.8 °F 30.2 in Calm     88 % 0 in 258.0 W/m2 CLR
10:16 32.7 °F 29.5 °F 30.2 in Calm     88 % 0 in 271.0 W/m2 CLR
10:21 33.3 °F 29.5 °F 30.1 in Calm     86 % 0 in 281.0 W/m2 CLR
10:26 33.6 °F 29.8 °F 30.1 in Calm     86 % 0 in 290.0 W/m2 CLR
10:31 34.2 °F 30 °F 30.1 in Calm     85 % 0 in 301.0 W/m2 CLR
10:36 34.3 °F 30 °F 30.1 in Calm     84 % 0 in 309.0 W/m2 CLR
10:41 34.5 °F 30.2 °F 30.1 in Calm     84 % 0 in 320.0 W/m2 CLR
10:46 34.9 °F 30.6 °F 30.1 in Calm     84 % 0 in 330.0 W/m2 CLR
10:51 35.1 °F 30.6 °F 30.1 in Calm     83 % 0 in 339.0 W/m2 CLR
10:56 35.4 °F 30.6 °F 30.1 in Calm     82 % 0 in 348.0 W/m2 CLR
11:01 36.7 °F 31.6 °F 30.1 in Calm     82 % 0 in 359.0 W/m2 CLR
11:06 37 °F 31.5 °F 30.1 in Calm     80 % 0 in 364.0 W/m2 CLR
11:11 37.9 °F 32.2 °F 30.1 in Calm     79 % 0 in 373.0 W/m2 CLR
11:16 38.7 °F 32 °F 30.1 in Calm     77 % 0 in 383.0 W/m2 CLR
11:21 39 °F 32.2 °F 30.1 in Calm     76 % 0 in 388.0 W/m2 CLR
11:26 39.7 °F 32.2 °F 30.1 in Calm     74 % 0 in 396.0 W/m2 CLR
11:31 40.1 °F 31.8 °F 30.1 in Calm     72 % 0 in 404.0 W/m2 CLR
11:36 40.5 °F 32.2 °F 30.1 in Calm     72 % 0 in 413.0 W/m2 CLR
11:41 40.6 °F 31.6 °F 30.1 in Calm     70 % 0 in 420.0 W/m2 CLR
11:46 40.8 °F 31.8 °F 30.1 in Calm     70 % 0 in 425.0 W/m2 CLR
11:51 41.2 °F 31.6 °F 30.1 in Calm     69 % 0 in 432.0 W/m2 CLR
11:56 41.2 °F 31.6 °F 30.1 in Calm     69 % 0 in 439.0 W/m2 CLR
12:01 41.2 °F 32.2 °F 30.1 in Calm     70 % 0 in 443.0 W/m2 CLR
12:06 41.2 °F 31.8 °F 30.1 in Calm     69 % 0 in 450.0 W/m2 CLR
12:11 41.5 °F 32.5 °F 30.1 in Calm     70 % 0 in 408.0 W/m2 CLR
12:16 41.9 °F 32.2 °F 30.1 in Calm     68 % 0 in 461.0 W/m2 CLR
12:21 42.1 °F 32.5 °F 30.1 in Calm     69 % 0 in 468.0 W/m2 CLR
12:26 42.3 °F 32.4 °F 30.1 in Calm     68 % 0 in 473.0 W/m2 CLR
12:31 42.3 °F 32.7 °F 30.1 in Calm     69 % 0 in 475.0 W/m2 CLR
12:36 42.4 °F 33.4 °F 30.1 in Calm     70 % 0 in 462.0 W/m2 CLR
12:41 42.6 °F 33.1 °F 30.1 in Calm     69 % 0 in 471.0 W/m2 CLR
12:46 42.8 °F 33.3 °F 30.1 in Calm     69 % 0 in 482.0 W/m2 CLR
12:51 43 °F 33.4 °F 30.1 in Calm     69 % 0 in 468.0 W/m2 CLR
12:56 43.2 °F 33.6 °F 30.1 in Calm     69 % 0 in 473.0 W/m2 CLR
13:01 43.2 °F 33.6 °F 30.1 in Calm     69 % 0 in 489.0 W/m2 CLR
13:06 43.3 °F 34 °F 30.1 in ENE 2.3 mph 2.3 mph 69 % 0 in 489.0 W/m2 CLR
13:11 43.3 °F 34.3 °F 30.1 in NE 1.2 mph 1.2 mph 70 % 0 in 496.0 W/m2 CLR
13:16 43.5 °F 34.2 °F 30.1 in Calm     69 % 0 in 496.0 W/m2 CLR
13:17 43.5 °F 34.2 °F 30.1 in NNE 3.5 mph 3.5 mph 69 % 0 in 494.0 W/m2 CLR
13:22 43.9 °F 34.5 °F 30.1 in Calm     70 % 0 in 403.0 W/m2 CLR
13:27 43.9 °F 35.1 °F 30.1 in Calm     71 % 0 in 490.0 W/m2 CLR
13:32 44.1 °F 34.9 °F 30.1 in Calm     70 % 0 in 490.0 W/m2 CLR
13:37 44.4 °F 36 °F 30.1 in NE 1.2 mph   72 % 0 in 469.0 W/m2 CLR
13:42 45 °F 36.1 °F 30.1 in Calm     71 % 0 in 446.0 W/m2 CLR
13:47 45.1 °F 36.3 °F 30.1 in Calm     71 % 0 in 455.0 W/m2 CLR
13:53 45.1 °F 36.7 °F 30.1 in Calm     72 % 0 in 468.0 W/m2 CLR
13:58 45.3 °F 36.3 °F 30.1 in NE 3.5 mph 3.5 mph 71 % 0 in 459.0 W/m2 CLR
14:03 45.7 °F 36.9 °F 30.1 in NE 1.2 mph 1.2 mph 71 % 0 in 450.0 W/m2 CLR
14:08 46 °F 37.6 °F 30.1 in Calm     72 % 0 in 469.0 W/m2 CLR
14:13 46.6 °F 37.8 °F 30.1 in Calm     71 % 0 in 482.0 W/m2 CLR
14:18 47.1 °F 38.1 °F 30.1 in Calm     71 % 0 in 445.0 W/m2 CLR
14:23 47.7 °F 38.8 °F 30.1 in Calm   0.3 mph 71 % 0 in 454.0 W/m2 CLR
14:28 48 °F 38.3 °F 30.1 in Calm   0.2 mph 69 % 0 in 443.0 W/m2 CLR
14:33 48.4 °F 38.3 °F 30.1 in East 2.3 mph   68 % 0 in 441.0 W/m2 CLR
14:38 48.7 °F 39 °F 30.1 in Calm   0.3 mph 69 % 0 in 415.0 W/m2 CLR
14:43 48.7 °F 38.7 °F 30 in East 6 mph 6 mph 68 % 0 in 422.0 W/m2 CLR
14:48 48.6 °F 38.8 °F 30 in East 3 mph 3 mph 69 % 0 in 371.0 W/m2 CLR
14:53 48.7 °F 39 °F 30 in Calm     69 % 0 in 387.0 W/m2 CLR
14:58 49.3 °F 39.6 °F 30 in East 2.3 mph   69 % 0 in 378.0 W/m2 CLR
15:03 49.5 °F 38.5 °F 30 in East 3.5 mph 3.5 mph 66 % 0 in 399.0 W/m2 CLR
15:08 49.3 °F 38.8 °F 30 in East 4 mph 4 mph 67 % 0 in 380.0 W/m2 CLR
15:13 49.3 °F 38.5 °F 30 in East 2.3 mph 2.3 mph 66 % 0 in 378.0 W/m2 CLR
15:18 49.5 °F 39 °F 30 in East 3.5 mph 3.5 mph 67 % 0 in 371.0 W/m2 CLR
15:23 49.3 °F 37.9 °F 30 in East 5.8 mph 5.8 mph 65 % 0 in 345.0 W/m2 CLR
15:28 49.3 °F 38.5 °F 30 in East 6 mph 6 mph 66 % 0 in 302.0 W/m2 CLR
15:33 49.3 °F 38.3 °F 30 in East 2.3 mph 2.3 mph 66 % 0 in 258.0 W/m2 CLR
15:38 49.3 °F 38.3 °F 30 in East 4.6 mph 4.6 mph 66 % 0 in 253.0 W/m2 CLR
15:43 49.1 °F 38.1 °F 30 in East 3 mph 3 mph 66 % 0 in 262.0 W/m2 CLR
15:48 49.3 °F 38.7 °F 30 in Calm     67 % 0 in 227.0 W/m2 CLR
15:53 49.5 °F 39 °F 30 in ENE 2.3 mph 2.3 mph 67 % 0 in 204.0 W/m2 CLR
15:58 49.6 °F 38.7 °F 30 in Calm     66 % 0 in 214.0 W/m2 CLR
16:03 49.6 °F 39.2 °F 30 in East 5 mph 5 mph 67 % 0 in 230.0 W/m2 CLR
16:04 49.6 °F 38.8 °F 30 in East 4.6 mph 4.6 mph 66 % 0 in 244.0 W/m2 CLR
16:09 49.6 °F 38.3 °F 30 in East 3.5 mph 3.5 mph 65 % 0 in 264.0 W/m2 CLR
16:14 49.8 °F 38.1 °F 30 in East 2.3 mph 2.3 mph 64 % 0 in 251.0 W/m2 CLR
16:19 49.8 °F 38.5 °F 30 in Calm     65 % 0 in 241.0 W/m2 CLR
16:20 49.8 °F 38.5 °F 30 in East 4 mph 4 mph 65 % 0 in 244.0 W/m2 CLR
16:25 49.8 °F 38.1 °F 30 in ESE 3.5 mph 3.5 mph 64 % 0 in 220.0 W/m2 CLR
16:30 49.6 °F 37.6 °F 30 in ESE 4.6 mph 4.6 mph 63 % 0 in 206.0 W/m2 CLR
16:35 49.3 °F 37.2 °F 30 in Calm     63 % 0 in 192.0 W/m2 CLR
16:40 49.5 °F 37.2 °F 30 in East 2.3 mph 2.3 mph 63 % 0 in 216.0 W/m2 CLR
16:45 49.5 °F 38.1 °F 30 in Calm     65 % 0 in 207.0 W/m2 CLR
16:50 49.6 °F 37.9 °F 30 in ESE 1.2 mph 1.2 mph 64 % 0 in 158.0 W/m2 CLR
16:55 49.5 °F 38.1 °F 30 in ESE 4.6 mph 4.6 mph 65 % 0 in 86.0 W/m2 CLR
17:00 48.9 °F 38.1 °F 30 in ESE 3.5 mph 3.5 mph 66 % 0 in 72.0 W/m2 CLR
17:05 48.7 °F 37.9 °F 30 in ESE 2.3 mph 2.3 mph 66 % 0 in 65.0 W/m2 FEW
17:10 48.7 °F 38.1 °F 30 in ESE 2.3 mph   67 % 0 in 54.0 W/m2 SCT
17:15 48.4 °F 37.9 °F 30 in East 3.5 mph 3.5 mph 67 % 0 in 46.0 W/m2 SCT
17:20 48 °F 37.8 °F 30 in ESE 4.6 mph 4.6 mph 67 % 0 in 40.0 W/m2 BKN
17:25 47.8 °F 37.6 °F 30 in ESE 3.5 mph 3.5 mph 67 % 0 in 35.0 W/m2 BKN
17:30 47.7 °F 37.8 °F 30 in East 2.3 mph 2.3 mph 68 % 0 in 32.0 W/m2 BKN
17:35 47.5 °F 37.4 °F 30.1 in East 1.2 mph 1.2 mph 68 % 0 in 26.0 W/m2 BKN
17:40 47.5 °F 37.4 °F 30.1 in ESE 4.6 mph 4.6 mph 68 % 0 in 23.0 W/m2 BKN
17:45 47.5 °F 36.7 °F 30.1 in SE 4 mph 4 mph 66 % 0 in 18.0 W/m2 BKN
17:50 47.5 °F 36.7 °F 30.1 in SE 3.5 mph 3.5 mph 66 % 0 in 12.0 W/m2 BKN
17:55 47.3 °F 36.5 °F 30.1 in SE 2.3 mph 2.3 mph 66 % 0 in 7.0 W/m2 BKN
18:00 46.9 °F 36.7 °F 30.1 in Calm     67 % 0 in 5.0 W/m2 OVC
18:05 46.8 °F 36.3 °F 30.1 in SE 3.5 mph 3.5 mph 67 % 0 in 0.0 W/m2 OVC
18:10 46.6 °F 36.5 °F 30.1 in Calm     68 % 0 in 0.0 W/m2 OVC
18:15 46.2 °F 36.3 °F 30.1 in SSE 3.5 mph 3.5 mph 68 % 0 in 0.0 W/m2 OVC
18:20 46.2 °F 36.1 °F 30.1 in SE 4.6 mph 4.6 mph 68 % 0 in 0.0 W/m2 CLR
18:25 46 °F 36.5 °F 30.1 in SE 4.6 mph 4.6 mph 69 % 0 in 0.0 W/m2 CLR
18:30 46 °F 36.3 °F 30.1 in SE 4.6 mph 4.6 mph 69 % 0 in 0.0 W/m2 CLR
18:35 46 °F 36.5 °F 30.1 in SSE 4.6 mph 4.6 mph 69 % 0 in 0.0 W/m2 CLR
18:40 46 °F 36.9 °F 30.1 in SSE 2.3 mph 2.3 mph 70 % 0 in 0.0 W/m2 CLR
18:45 46 °F 36.9 °F 30.1 in SSE 3.5 mph 3.5 mph 70 % 0 in 0.0 W/m2 CLR
18:50 45.9 °F 36.9 °F 30.1 in Calm     71 % 0 in 0.0 W/m2 CLR
18:55 45.9 °F 36.9 °F 30.1 in Calm     71 % 0 in 0.0 W/m2 CLR
19:00 45.7 °F 37.2 °F 30.1 in Calm     72 % 0 in 0.0 W/m2 CLR
19:05 45.7 °F 37.2 °F 30.1 in Calm   0.4 mph 72 % 0 in 0.0 W/m2 CLR
19:10 45.7 °F 37 °F 30.1 in South 2.3 mph   72 % 0 in 0.0 W/m2 CLR
19:15 45.7 °F 37 °F 30.1 in Calm     72 % 0 in 0.0 W/m2 CLR
19:20 45.7 °F 37 °F 30.1 in Calm     72 % 0 in 0.0 W/m2 CLR
19:25 45.7 °F 37 °F 30.1 in SSE 1 mph 1 mph 72 % 0 in 0.0 W/m2 CLR
19:30 45.7 °F 36.9 °F 30.1 in Calm     71 % 0 in 0.0 W/m2 CLR
19:36 45.7 °F 37.2 °F 30.1 in Calm     72 % 0 in 0.0 W/m2 CLR
19:41 45.7 °F 36.9 °F 30.1 in Calm     71 % 0 in 0.0 W/m2 CLR
19:46 45.7 °F 36.9 °F 30.1 in Calm     71 % 0 in 0.0 W/m2 CLR
19:51 45.7 °F 36.9 °F 30.1 in SSE 4.6 mph 4.6 mph 71 % 0 in 0.0 W/m2 CLR
19:56 45.9 °F 36.7 °F 30.1 in SE 3.5 mph 3.5 mph 70 % 0 in 0.0 W/m2 CLR
20:01 45.9 °F 36.7 °F 30.1 in SE 2.3 mph   70 % 0 in 0.0 W/m2 CLR
20:06 45.7 °F 36.3 °F 30.1 in Calm     70 % 0 in 0.0 W/m2 CLR
20:11 45.3 °F 36.3 °F 30.1 in Calm     71 % 0 in 0.0 W/m2 CLR
20:16 45.1 °F 36.3 °F 30.1 in Calm     71 % 0 in 0.0 W/m2 CLR
20:21 45.1 °F 36.3 °F 30.1 in Calm     71 % 0 in 0.0 W/m2 CLR
20:26 45.1 °F 36.7 °F 30.1 in Calm     72 % 0 in 0.0 W/m2 CLR
20:31 45.3 °F 36.3 °F 30.1 in Calm     71 % 0 in 0.0 W/m2 CLR
20:36 45.3 °F 36.3 °F 30.1 in Calm     71 % 0 in 0.0 W/m2 CLR
20:41 45.1 °F 36.3 °F 30.1 in Calm     71 % 0 in 0.0 W/m2 CLR
20:46 44.8 °F 36 °F 30.1 in Calm     71 % 0 in 0.0 W/m2 CLR
20:51 44.8 °F 36 °F 30.1 in Calm     71 % 0 in 0.0 W/m2 CLR
20:56 44.8 °F 36 °F 30.1 in Calm     71 % 0 in 0.0 W/m2 CLR
21:01 44.8 °F 36 °F 30.1 in Calm     71 % 0 in 0.0 W/m2 CLR
21:06 44.8 °F 36.3 °F 30.1 in Calm     72 % 0 in 0.0 W/m2 CLR
21:11 44.8 °F 36.3 °F 30.1 in Calm     72 % 0 in 0.0 W/m2 CLR
21:16 44.4 °F 36.3 °F 30.1 in Calm     73 % 0 in 0.0 W/m2 CLR
21:21 44.2 °F 36.5 °F 30.1 in Calm     74 % 0 in 0.0 W/m2 CLR
21:26 44.2 °F 36.1 °F 30.1 in Calm     73 % 0 in 0.0 W/m2 CLR
21:31 44.4 °F 36.3 °F 30.1 in Calm     73 % 0 in 0.0 W/m2 CLR
21:36 44.4 °F 36.7 °F 30.1 in Calm     74 % 0 in 0.0 W/m2 CLR
21:41 44.2 °F 36.5 °F 30.1 in Calm     74 % 0 in 0.0 W/m2 CLR
21:46 44.2 °F 36.9 °F 30.1 in Calm     75 % 0 in 0.0 W/m2 CLR
21:51 44.1 °F 36.7 °F 30.1 in Calm     75 % 0 in 0.0 W/m2 CLR
21:56 43.9 °F 36.9 °F 30.1 in Calm     76 % 0 in 0.0 W/m2 CLR
22:01 43.7 °F 36.7 °F 30.1 in Calm     76 % 0 in 0.0 W/m2 CLR
22:06 43.5 °F 36.9 °F 30.1 in Calm     77 % 0 in 0.0 W/m2 CLR
22:11 43.3 °F 37 °F 30.1 in Calm     78 % 0 in 0.0 W/m2 CLR
22:16 43.3 °F 36.9 °F 30.1 in Calm     78 % 0 in 0.0 W/m2 CLR
22:21 43.3 °F 37.2 °F 30.1 in Calm     79 % 0 in 0.0 W/m2 CLR
22:26 43.3 °F 37.6 °F 30 in Calm     80 % 0 in 0.0 W/m2 CLR
22:31 43.3 °F 37.6 °F 30 in Calm     80 % 0 in 0.0 W/m2 CLR
22:36 43.5 °F 37.8 °F 30 in Calm     80 % 0 in 0.0 W/m2 CLR
22:41 43.5 °F 37.8 °F 30.1 in Calm     80 % 0 in 0.0 W/m2 CLR
22:46 43.5 °F 37.4 °F 30 in Calm     79 % 0 in 0.0 W/m2 CLR
22:51 43.5 °F 37.8 °F 30.1 in Calm     80 % 0 in 0.0 W/m2 CLR
22:56 43.3 °F 37.6 °F 30.1 in Calm     80 % 0 in 0.0 W/m2 CLR
23:01 43.3 °F 37.9 °F 30 in Calm     81 % 0 in 0.0 W/m2 CLR
23:06 43.5 °F 38.1 °F 30 in Calm     81 % 0 in 0.0 W/m2 CLR
23:11 43.5 °F 37.8 °F 30 in Calm     80 % 0 in 0.0 W/m2 CLR
23:16 43.3 °F 37.9 °F 30 in ESE 3.5 mph 3.5 mph 81 % 0 in 0.0 W/m2 CLR
23:22 43.7 °F 38.3 °F 30 in Calm     81 % 0 in 0.0 W/m2 CLR
23:27 43.9 °F 37.9 °F 30 in Calm     80 % 0 in 0.0 W/m2 CLR
23:32 43.9 °F 37.9 °F 30 in Calm     80 % 0 in 0.0 W/m2 CLR
23:37 43.7 °F 37.9 °F 30 in Calm     80 % 0 in 0.0 W/m2 CLR
23:42 43.7 °F 38.3 °F 30 in Calm     81 % 0 in 0.0 W/m2 CLR
23:47 43.5 °F 38.1 °F 30 in Calm     81 % 0 in 0.0 W/m2 CLR
23:52 43.5 °F 38.1 °F 30 in Calm     81 % 0 in 0.0 W/m2 CLR
23:57 43.7 °F 38.3 °F 30 in Calm     81 % 0 in 0.0 W/m2 CLR
Lo Temps de Massalio
Compliments of Weather Underground - 1.25 mb